Flag for U.S.A. Weather past 2 weeks in Roswell, New Mexico, U.S.A.

Now
91 °F

Thundershowers. Passing clouds.


Feels Like: 90 °F
Forecast: 71 / 94 °F
Wind: 17 mph from Southeast

Location: Roswell Industrial Air Center Airport

Current Time: Jul 22, 2014 at 6:26:50 PM

Latest Report: Jul 22, 2014 at 5:51 PM


Visibility: 9 mi

Pressure: 29.92 "Hg

Humidity: 33%

Dew point: 58 °F

Location of RoswellLocation

Historic Weather in Roswell — Graph

°F

Roswell temperature yesterday

Maximum temperature yesterday: 100 °F (at 3:51 PM)
Minimum temperature yesterday: 70 °F (at 5:51 AM)
Average temperature yesterday: 85 °F

Past Weeks' High & Low Weather Summary

 TemperatureHumidityPressure
High100 °F (Jul 21, 3:51 PM)87% (Jul 16, 7:51 AM)30.11 "Hg (Jul 16, 7:51 AM)
Low65 °F (Jul 11, 5:51 AM)18% (Jul 7, 6:51 PM)29.67 "Hg (Jul 16, 6:51 PM)
Average81 °F49%29.86 "Hg
* Reported Jul 7 10:51 AM — Jul 22 10:51 AM, Roswell, Weather by CustomWeather, © 2014

Note: Actual official high and low records may vary slightly from our data, if they occured in-between our weather recording intervals... More about our weather records

Advertising

Roswell weather history for previous 24 hours

 ConditionsComfort  
Time TempWeatherWind HumidityBarometerVisibility
10:51 AM
Jul 22
87 °FSunny.13 mph50%29.96 "Hg10 mi
9:51 AM85 °FSunny.13 mph50%29.96 "Hg10 mi
8:51 AM83 °FSunny.14 mph57%29.96 "Hg10 mi
7:51 AM79 °FSunny.9 mph60%29.94 "Hg10 mi
6:51 AM73 °FClear.7 mph74%29.93 "Hg10 mi
5:51 AM74 °FClear.5 mph69%29.92 "Hg10 mi
4:51 AM76 °FClear.10 mph64%29.91 "Hg10 mi
3:51 AM76 °FClear.9 mph62%29.90 "Hg10 mi
2:51 AM78 °FClear.7 mph52%29.88 "Hg10 mi
1:51 AM75 °FClear.8 mph62%29.88 "Hg10 mi
12:51 AM75 °FClear.7 mph55%29.88 "Hg10 mi
11:51 PM
Jul 21
77 °FClear.5 mph54%29.88 "Hg10 mi
10:51 PM82 °FClear.9 mph43%29.86 "Hg10 mi
9:51 PM82 °FClear.7 mph44%29.84 "Hg10 mi
8:51 PM87 °FSunny.9 mph37%29.83 "Hg10 mi
7:51 PM89 °FSunny.12 mph36%29.81 "Hg10 mi
6:51 PM93 °FSunny.16 mph30%29.80 "Hg10 mi
Weather by CustomWeather, © 2014

See weather overviewHow to use our weather pages